Location: WWIN Observatory
(34.8953°N, 91.9583°W)
Time: 19:31:42
(UTC-06:00)

Hubble Space Telescope - Visible Passes

Search period start: 12 November 2019 00:00
Search period end: 22 November 2019 00:00
Orbit: 536 x 540 km, 28.5° (Epoch: 12 November)

Date Brightness Start Highest point End Pass type
(mag) Time Alt. Az. Time Alt. Az. Time Alt. Az.
16 Nov 3.1 18:58:32 10° SSW 18:59:50 14° S 18:59:50 14° S visible
17 Nov 2.8 18:47:25 10° SSW 18:49:56 17° SSE 18:49:56 17° SSE visible
18 Nov 2.5 18:36:26 10° SSW 18:39:31 20° SSE 18:39:59 20° SSE visible
19 Nov 2.4 18:25:32 10° SW 18:28:50 23° SSE 18:30:01 20° SE visible
20 Nov 2.3 18:14:43 10° SW 18:18:11 26° SSE 18:20:03 19° SE visible
20 Nov 4.0 19:55:14 10° WSW 19:55:23 11° WSW 19:55:23 11° WSW visible
21 Nov 2.2 18:03:56 10° SW 18:07:30 29° S 18:10:04 16° ESE visible
21 Nov 3.7 19:44:37 10° WSW 19:45:24 14° WSW 19:45:24 14° WSW visible
